STARLINK-32495, 62052

Orbit data source: Space-Track

STARLINK-32495, 62052 is a payload satellite owned by SpaceX/Seattle (US) in LEO that was launched on Thu, 21 Nov 2024 UTC via an FALCON 9 launch vehicle from the Air Force Eastern Test Range (AFETR). Payload-class satellites include a variety of spacecraft equipped with specific instruments for various scientific and technological missions. These include communications satellites like Starlink; space stations such as the ISS; scientific satellites like the Hubble; Earth observation satellites from companies like Planet Labs, Umbra, and HawkEye 360; GPS; miniature CubeSats for education and research; and military/defense satellites.

Loading next visibility...
Identifier
62052, 2024-216W
Orbit
LEO
Country
Flag of USUS
Related business
Manufacturer
SpaceX/Seattle
Mission
Operational Commercial Communications
Bus & Motor
STARLINK V2M, Unknown motor
Mass
730 kg wet, ~700 kg dry
Launch date (UTC)
2024-11-21 (2 years ago)
Launch vehicle
FALCON 9
Launch site
Air Force Eastern Test Range (AFETR)
Object type
Payload
Rocket body
Debris
Shape & HBR
Box + 2 Pan, 17.7 m
Radar Cross Section
33.884 m², Large (>1 m²)

Expand to show TLE details & history
Last TLE update: 14 hours ago

TLE from 14 hours ago
0 STARLINK-32495
1 62052U 24216W   26237.75063578  .00016613  00000-0  61157-3 0  9991
2 62052  43.0041  28.2724 0002310 281.0733  78.9859 15.27594807 99657
Epoch: 2026-08-25T18:00Z
TLE epoch observation values (Epoch: 2026-08-25T18:00:54.931Z)
Latitude
-0.00001°
Longitude
144.03001°
Altitude
482.478 km
Speed
7.626 km/s
True Right ascension
01h 53m 05s
True Declination
0° 00' 00"
Sunlit
Object was in full shadow at epoch
Visualization orbit readout
Latitude
Unknown
Longitude
Unknown
Altitude
Unknown
Speed
Unknown
Apparent Right ascension
Unknown
Apparent Declination
Unknown
Sunlit
N/A
Visualization observer readout
Local Sidereal Time
23:17:47
Azimuth
Unknown
Elevation
Unknown
Doppler factor
Unknown
Orbital elements
Apogee altitude
486.535 km
Perigee altitude
483.364 km
Semi-major axis
6,863.086 km
Eccentricity
0.00023
Inclination
43.0041°
RAAN
28.2724°
Arg. of periapsis
281.0733°
True anomaly
79.01188°
Mean anomaly
78.9859°
Eccentric anomaly
78.99889°
Mean motion
3.81737 °/min
Orbital period
94.31 mins
BSTAR
0.00061157
Loading maneuver chart data...
Computing Atmospheric mass density...
Loading historical data...
Loading historical data...
Loading historical data...
Loading historical data...
Loading historical data...
Loading historical data...
Loading historical data...

Documentation

Showing up to 5 results
|